Home > Weather > Borås > Past weeks

Flag for Sweden Past Weather in Borås, Sweden — Yesterday and Last 2 Weeks

Now
66 °F

Thunderstorms. Scattered clouds.


Feels Like: 66 °F
Forecast: 46 / 57 °F
Wind: 15 mph from Northeast

Location: Gothenburg / Landvetter

Current Time: May 24, 2016 at 3:50:04 PM

Latest Report: May 24, 2016 at 3:20 PM


Visibility: N/A

Pressure: 29.89 "Hg

Humidity: 78%

Dew Point: 59 °F

Location of BoråsLocation

Past Weather in Borås — Graph

°F

Borås Temperature Yesterday

Maximum temperature yesterday: 66 °F (at 1:20 PM)
Minimum temperature yesterday: 57 °F (at 10:20 PM)
Average temperature yesterday: 61 °F

High & Low Weather Summary for the Past Weeks

 TemperatureHumidityPressure
High75 °F (May 10, 1:20 PM)100% (May 15, 10:50 AM)30.27 "Hg (May 15, 10:50 AM)
Low39 °F (May 14, 5:50 AM)23% (May 10, 12:20 PM)29.53 "Hg (May 13, 3:50 PM)
Average54 °F68%29.83 "Hg
* Reported May 9 2:20 PM — May 24 2:20 PM, Borås, Weather by CustomWeather, © 2016

Note: Actual official high and low records may vary slightly from our data, if they occured in-between our weather recording intervals... More about our weather records

Advertising

Borås Weather History for the Previous 24 Hours

Scroll right to see more
 ConditionsComfort  
Time TempWeatherWind HumidityBarometerVisibility
2:20 PM
Tue, May 24
70 °FScattered clouds.16 mph73%29.86 "HgN/A
1:50 PM72 °FSunny.13 mph69%29.86 "Hg10 mi
1:20 PM72 °FSunny.10 mph69%29.86 "Hg10 mi
12:50 PM70 °FPassing clouds.10 mph73%29.86 "HgN/A
12:20 PM70 °FSunny.9 mph69%29.86 "Hg10 mi
11:50 AM70 °FPassing clouds.8 mph69%29.86 "HgN/A
11:20 AM68 °FSunny.10 mph73%29.86 "Hg10 mi
10:50 AM68 °FPassing clouds.9 mph69%29.86 "HgN/A
10:20 AM63 °FSunny.13 mph83%29.86 "Hg10 mi
9:50 AM63 °FSunny.13 mph83%29.86 "Hg10 mi
9:20 AM61 °FSunny.10 mph83%29.86 "Hg10 mi
8:50 AM61 °FSunny.10 mph83%29.86 "Hg10 mi
8:20 AM59 °FSunny.10 mph88%29.86 "Hg10 mi
7:50 AM57 °FSunny.9 mph94%29.86 "Hg10 mi
7:20 AM57 °FSunny.9 mph94%29.86 "Hg10 mi
6:50 AM55 °FSunny.7 mph100%29.86 "Hg10 mi
6:20 AM55 °FSunny.7 mph94%29.86 "Hg10 mi
5:50 AM54 °FSunny.8 mph100%29.86 "Hg10 mi
5:20 AM55 °FFog.8 mph94%29.86 "Hg6 mi
4:50 AM54 °FFog.9 mph100%29.86 "Hg5 mi
4:20 AM54 °FFog.10 mph100%29.86 "Hg4 mi
3:50 AM55 °FFog.10 mph94%29.86 "Hg5 mi
3:20 AM55 °FFog.10 mph94%29.86 "Hg6 mi
2:50 AM55 °FFog.9 mph94%29.86 "Hg6 mi
2:20 AM54 °FClear.10 mph94%29.86 "Hg10 mi
1:50 AM55 °FClear.8 mph94%29.89 "Hg10 mi
1:20 AM55 °FClear.7 mph94%29.89 "Hg10 mi
12:50 AM57 °FClear.6 mph88%29.86 "Hg10 mi
12:20 AM57 °FClear.6 mph88%29.89 "Hg10 mi
11:50 PM
Mon, May 23
57 °FPartly cloudy.6 mph88%29.89 "HgN/A
11:20 PM57 °FPassing clouds.6 mph88%29.89 "HgN/A
10:50 PM57 °FPassing clouds.6 mph88%29.89 "HgN/A
10:20 PM57 °FScattered clouds.5 mph88%29.89 "HgN/A
9:50 PM59 °FSunny.6 mph82%29.86 "Hg10 mi
9:20 PM59 °FSunny.6 mph82%29.89 "Hg10 mi
8:50 PM61 °FSunny.6 mph77%29.86 "Hg10 mi
8:20 PM61 °FSunny.6 mph83%29.86 "Hg10 mi
7:50 PM61 °FSunny.7 mph83%29.86 "Hg10 mi
7:20 PM63 °FSunny.7 mph77%29.83 "Hg10 mi
6:50 PM64 °FSunny.7 mph73%29.83 "Hg10 mi
6:20 PM64 °FPassing clouds.6 mph73%29.83 "HgN/A
5:50 PM66 °FPassing clouds.5 mph68%29.83 "HgN/A
5:20 PM66 °FPassing clouds.6 mph68%29.83 "HgN/A
4:50 PM64 °FPassing clouds.8 mph78%29.83 "HgN/A
4:20 PM66 °FSunny.9 mph73%29.83 "Hg10 mi
3:50 PM66 °FSunny.7 mph73%29.83 "Hg10 mi
3:20 PM66 °FCloudy.7 mph73%29.83 "HgN/A
Weather by CustomWeather, © 2016

See weather overviewHow to use our weather pages